Time,TemperatureF,DewpointF,PressureIn,WindDirection,WindDirectionDegrees,WindSpeedMPH,WindSpeedGustMPH,Humidity,HourlyPrecipIn,Conditions,Clouds,dailyrainin,SoftwareType,DateUTC
2013-03-13 00:00:00,31.0,23.0,-100.00,North,-999,-999.0,-999.0,70,-99.99,,,-99.99,,2013-03-13 06:00:00,
2013-03-13 00:33:00,31.0,23.0,-100.00,North,-999,-999.0,-999.0,70,-99.99,,,-99.99,,2013-03-13 06:33:00,
2013-03-13 00:42:00,31.0,23.0,-100.00,North,-999,-999.0,-999.0,70,-99.99,,,-99.99,,2013-03-13 06:42:00,
2013-03-13 00:52:00,31.0,23.0,-100.00,North,-999,-999.0,-999.0,70,-99.99,,,-99.99,,2013-03-13 06:52:00,
2013-03-13 01:00:00,32.0,22.0,-100.00,North,-999,-999.0,-999.0,67,-99.99,,,-99.99,,2013-03-13 07:00:00,
2013-03-13 01:33:00,32.0,22.0,-100.00,North,-999,-999.0,-999.0,67,-99.99,,,-99.99,,2013-03-13 07:33:00,
2013-03-13 01:43:00,32.0,22.0,-100.00,North,-999,-999.0,-999.0,67,-99.99,,,-99.99,,2013-03-13 07:43:00,
2013-03-13 01:52:00,32.0,22.0,-100.00,North,-999,-999.0,-999.0,67,-99.99,,,-99.99,,2013-03-13 07:52:00,
2013-03-13 02:00:00,33.0,24.0,-100.00,North,-999,-999.0,-999.0,68,-99.99,,,-99.99,,2013-03-13 08:00:00,
2013-03-13 02:33:00,33.0,24.0,-100.00,North,-999,-999.0,-999.0,68,-99.99,,,-99.99,,2013-03-13 08:33:00,
2013-03-13 02:43:00,33.0,24.0,-100.00,North,-999,-999.0,-999.0,68,-99.99,,,-99.99,,2013-03-13 08:43:00,
2013-03-13 02:53:00,33.0,24.0,-100.00,North,-999,-999.0,-999.0,68,-99.99,,,-99.99,,2013-03-13 08:53:00,
2013-03-13 03:00:00,32.0,24.0,-100.00,North,-999,-999.0,-999.0,70,-99.99,,,-99.99,,2013-03-13 09:00:00,
2013-03-13 03:32:00,32.0,24.0,-100.00,North,-999,-999.0,-999.0,70,-99.99,,,-99.99,,2013-03-13 09:32:00,
2013-03-13 03:42:00,32.0,24.0,-100.00,North,-999,-999.0,-999.0,70,-99.99,,,-99.99,,2013-03-13 09:42:00,
2013-03-13 03:52:00,32.0,24.0,-100.00,North,-999,-999.0,-999.0,70,-99.99,,,-99.99,,2013-03-13 09:52:00,
2013-03-13 04:00:00,32.0,24.0,-100.00,North,-999,-999.0,-999.0,72,-99.99,,,-99.99,,2013-03-13 10:00:00,
2013-03-13 04:32:00,32.0,24.0,-100.00,North,-999,-999.0,-999.0,72,-99.99,,,-99.99,,2013-03-13 10:32:00,
2013-03-13 04:42:00,32.0,24.0,-100.00,North,-999,-999.0,-999.0,72,-99.99,,,-99.99,,2013-03-13 10:42:00,
2013-03-13 04:52:00,32.0,24.0,-100.00,North,-999,-999.0,-999.0,72,-99.99,,,-99.99,,2013-03-13 10:52:00,
2013-03-13 05:00:00,33.0,23.0,-100.00,North,-999,-999.0,-999.0,68,-99.99,,,-99.99,,2013-03-13 11:00:00,
2013-03-13 05:32:00,33.0,23.0,-100.00,North,-999,-999.0,-999.0,68,-99.99,,,-99.99,,2013-03-13 11:32:00,
2013-03-13 05:42:00,33.0,23.0,-100.00,North,-999,-999.0,-999.0,68,-99.99,,,-99.99,,2013-03-13 11:42:00,
2013-03-13 05:52:00,33.0,23.0,-100.00,North,-999,-999.0,-999.0,68,-99.99,,,-99.99,,2013-03-13 11:52:00,
2013-03-13 06:00:00,32.0,24.0,-100.00,North,-999,-999.0,-999.0,72,-99.99,,,-99.99,,2013-03-13 12:00:00,
2013-03-13 06:32:00,32.0,24.0,-100.00,North,-999,-999.0,-999.0,72,-99.99,,,-99.99,,2013-03-13 12:32:00,
2013-03-13 06:42:00,32.0,24.0,-100.00,North,-999,-999.0,-999.0,72,-99.99,,,-99.99,,2013-03-13 12:42:00,
2013-03-13 06:53:00,32.0,24.0,-100.00,North,-999,-999.0,-999.0,72,-99.99,,,-99.99,,2013-03-13 12:53:00,
2013-03-13 07:00:00,32.0,23.0,-100.00,North,-999,-999.0,-999.0,69,-99.99,,,-99.99,,2013-03-13 13:00:00,
2013-03-13 07:33:00,32.0,23.0,-100.00,North,-999,-999.0,-999.0,69,-99.99,,,-99.99,,2013-03-13 13:33:00,
2013-03-13 07:43:00,32.0,23.0,-100.00,North,-999,-999.0,-999.0,69,-99.99,,,-99.99,,2013-03-13 13:43:00,
2013-03-13 07:52:00,32.0,23.0,-100.00,North,-999,-999.0,-999.0,69,-99.99,,,-99.99,,2013-03-13 13:52:00,
2013-03-13 08:00:00,33.0,23.0,-100.00,North,-999,-999.0,-999.0,68,-99.99,,,-99.99,,2013-03-13 14:00:00,
2013-03-13 08:34:00,33.0,23.0,-100.00,North,-999,-999.0,-999.0,68,-99.99,,,-99.99,,2013-03-13 14:34:00,
2013-03-13 08:42:00,33.0,23.0,-100.00,North,-999,-999.0,-999.0,68,-99.99,,,-99.99,,2013-03-13 14:42:00,
2013-03-13 08:52:00,33.0,23.0,-100.00,North,-999,-999.0,-999.0,68,-99.99,,,-99.99,,2013-03-13 14:52:00,
2013-03-13 09:32:00,42.0,24.0,-100.00,North,-999,-999.0,-999.0,50,-99.99,,,-99.99,,2013-03-13 15:32:00,
2013-03-13 10:32:00,46.0,23.0,-100.00,North,-999,-999.0,-999.0,40,-99.99,,,-99.99,,2013-03-13 16:32:00,
2013-03-13 11:33:00,48.0,22.0,-100.00,North,-999,-999.0,-999.0,35,-99.99,,,-99.99,,2013-03-13 17:33:00,
2013-03-13 12:00:00,47.0,20.0,-100.00,North,-999,-999.0,-999.0,34,-99.99,,,-99.99,,2013-03-13 18:00:00,
2013-03-13 12:33:00,47.0,20.0,-100.00,North,-999,-999.0,-999.0,34,-99.99,,,-99.99,,2013-03-13 18:33:00,
2013-03-13 12:42:00,47.0,20.0,-100.00,North,-999,-999.0,-999.0,34,-99.99,,,-99.99,,2013-03-13 18:42:00,
2013-03-13 12:52:00,47.0,20.0,-100.00,North,-999,-999.0,-999.0,34,-99.99,,,-99.99,,2013-03-13 18:52:00,
2013-03-13 13:00:00,47.0,19.0,-100.00,North,-999,-999.0,-999.0,32,-99.99,,,-99.99,,2013-03-13 19:00:00,
2013-03-13 13:32:00,47.0,19.0,-100.00,North,-999,-999.0,-999.0,32,-99.99,,,-99.99,,2013-03-13 19:32:00,
2013-03-13 13:43:00,47.0,19.0,-100.00,North,-999,-999.0,-999.0,32,-99.99,,,-99.99,,2013-03-13 19:43:00,
2013-03-13 13:53:00,47.0,19.0,-100.00,North,-999,-999.0,-999.0,32,-99.99,,,-99.99,,2013-03-13 19:53:00,
2013-03-13 14:00:00,49.0,18.0,-100.00,North,-999,-999.0,-999.0,28,-99.99,,,-99.99,,2013-03-13 20:00:00,
2013-03-13 14:32:00,49.0,18.0,-100.00,North,-999,-999.0,-999.0,28,-99.99,,,-99.99,,2013-03-13 20:32:00,
2013-03-13 14:42:00,49.0,18.0,-100.00,North,-999,-999.0,-999.0,28,-99.99,,,-99.99,,2013-03-13 20:42:00,
2013-03-13 14:52:00,49.0,18.0,-100.00,North,-999,-999.0,-999.0,28,-99.99,,,-99.99,,2013-03-13 20:52:00,
2013-03-13 15:00:00,48.0,18.0,-100.00,North,-999,-999.0,-999.0,29,-99.99,,,-99.99,,2013-03-13 21:00:00,
2013-03-13 15:34:00,48.0,18.0,-100.00,North,-999,-999.0,-999.0,29,-99.99,,,-99.99,,2013-03-13 21:34:00,
2013-03-13 15:42:00,48.0,18.0,-100.00,North,-999,-999.0,-999.0,29,-99.99,,,-99.99,,2013-03-13 21:42:00,
2013-03-13 15:52:00,48.0,18.0,-100.00,North,-999,-999.0,-999.0,29,-99.99,,,-99.99,,2013-03-13 21:52:00,
2013-03-13 16:00:00,46.0,17.0,-100.00,North,-999,-999.0,-999.0,30,-99.99,,,-99.99,,2013-03-13 22:00:00,
2013-03-13 16:32:00,46.0,17.0,-100.00,North,-999,-999.0,-999.0,30,-99.99,,,-99.99,,2013-03-13 22:32:00,
2013-03-13 16:42:00,46.0,17.0,-100.00,North,-999,-999.0,-999.0,30,-99.99,,,-99.99,,2013-03-13 22:42:00,
2013-03-13 16:52:00,46.0,17.0,-100.00,North,-999,-999.0,-999.0,30,-99.99,,,-99.99,,2013-03-13 22:52:00,
2013-03-13 17:00:00,46.0,18.0,-100.00,North,-999,-999.0,-999.0,31,-99.99,,,-99.99,,2013-03-13 23:00:00,
2013-03-13 17:32:00,46.0,18.0,-100.00,North,-999,-999.0,-999.0,31,-99.99,,,-99.99,,2013-03-13 23:32:00,
2013-03-13 17:43:00,46.0,18.0,-100.00,North,-999,-999.0,-999.0,31,-99.99,,,-99.99,,2013-03-13 23:43:00,
2013-03-13 17:52:00,46.0,18.0,-100.00,North,-999,-999.0,-999.0,31,-99.99,,,-99.99,,2013-03-13 23:52:00,
2013-03-13 18:00:00,44.0,17.0,-100.00,North,-999,-999.0,-999.0,32,-99.99,,,-99.99,,2013-03-14 00:00:00,
2013-03-13 18:32:00,44.0,17.0,-100.00,North,-999,-999.0,-999.0,32,-99.99,,,-99.99,,2013-03-14 00:32:00,
2013-03-13 18:42:00,44.0,17.0,-100.00,North,-999,-999.0,-999.0,32,-99.99,,,-99.99,,2013-03-14 00:42:00,
2013-03-13 18:52:00,44.0,17.0,-100.00,North,-999,-999.0,-999.0,32,-99.99,,,-99.99,,2013-03-14 00:52:00,
2013-03-13 19:00:00,41.0,17.0,-100.00,North,-999,-999.0,-999.0,36,-99.99,,,-99.99,,2013-03-14 01:00:00,
2013-03-13 19:32:00,41.0,17.0,-100.00,North,-999,-999.0,-999.0,36,-99.99,,,-99.99,,2013-03-14 01:32:00,
2013-03-13 19:42:00,41.0,17.0,-100.00,North,-999,-999.0,-999.0,36,-99.99,,,-99.99,,2013-03-14 01:42:00,
2013-03-13 19:52:00,41.0,17.0,-100.00,North,-999,-999.0,-999.0,36,-99.99,,,-99.99,,2013-03-14 01:52:00,
2013-03-13 20:00:00,39.0,18.0,-100.00,North,-999,-999.0,-999.0,42,-99.99,,,-99.99,,2013-03-14 02:00:00,
2013-03-13 20:33:00,39.0,18.0,-100.00,North,-999,-999.0,-999.0,42,-99.99,,,-99.99,,2013-03-14 02:33:00,
2013-03-13 20:42:00,39.0,18.0,-100.00,North,-999,-999.0,-999.0,42,-99.99,,,-99.99,,2013-03-14 02:42:00,
2013-03-13 20:52:00,39.0,18.0,-100.00,North,-999,-999.0,-999.0,42,-99.99,,,-99.99,,2013-03-14 02:52:00,
2013-03-13 21:33:00,39.0,18.0,-100.00,North,-999,-999.0,-999.0,41,-99.99,,,-99.99,,2013-03-14 03:33:00,
2013-03-13 21:42:00,39.0,18.0,-100.00,North,-999,-999.0,-999.0,41,-99.99,,,-99.99,,2013-03-14 03:42:00,
2013-03-13 21:52:00,39.0,18.0,-100.00,North,-999,-999.0,-999.0,41,-99.99,,,-99.99,,2013-03-14 03:52:00,
2013-03-13 22:00:00,40.0,17.0,-100.00,North,-999,-999.0,-999.0,39,-99.99,,,-99.99,,2013-03-14 04:00:00,
2013-03-13 22:32:00,40.0,17.0,-100.00,North,-999,-999.0,-999.0,39,-99.99,,,-99.99,,2013-03-14 04:32:00,
2013-03-13 22:42:00,40.0,17.0,-100.00,North,-999,-999.0,-999.0,39,-99.99,,,-99.99,,2013-03-14 04:42:00,
2013-03-13 22:52:00,40.0,17.0,-100.00,North,-999,-999.0,-999.0,39,-99.99,,,-99.99,,2013-03-14 04:52:00,
2013-03-13 23:00:00,40.0,15.0,-100.00,North,-999,-999.0,-999.0,36,-99.99,,,-99.99,,2013-03-14 05:00:00,
2013-03-13 23:33:00,40.0,15.0,-100.00,North,-999,-999.0,-999.0,36,-99.99,,,-99.99,,2013-03-14 05:33:00,
2013-03-13 23:42:00,40.0,15.0,-100.00,North,-999,-999.0,-999.0,36,-99.99,,,-99.99,,2013-03-14 05:42:00,
2013-03-13 23:52:00,40.0,15.0,-100.00,North,-999,-999.0,-999.0,36,-99.99,,,-99.99,,2013-03-14 05:52:00,